Weather History for CYZP - February, 2014

Change the Weather History Date:

Wednesday, February 19, 2014

  Actual Average Record
Temperature  
Mean Temperature 36 °F -  
Max Temperature 39 °F 46 °F 48 °F (2004)
Min Temperature 32 °F 38 °F 28 °F (2011)
Degree Days  
Heating Degree Days 30    
Moisture  
Dew Point 33 °F    
Average Humidity 89    
Maximum Humidity 100    
Minimum Humidity 62    
Precipitation  
Precipitation 0.00 in 0.34 in - ()
Sea Level Pressure  
Sea Level Pressure 29.63 in    
Wind  
Wind Speed 11 mph ()    
Max Wind Speed 24 mph    
Max Gust Speed 30 mph    
Visibility 8.2 miles    
Events Rain , Snow    
Averages and records for this station are not official NWS values.
T = Trace of Precipitation, MM = Missing Value Source: Averaged Metar Reports

Daily Weather History Graph

Daily Weather History Graph

Search for Another Location

Airport or City:

Trip Planner

Search our weather history database for the weather conditions in past years. The results will help you decide how hot, cold, wet, or windy it might be!

Date:

Astronomy

Feb. 19, 2014 Rise Set
Actual Time 7:56 AM PST 6:06 PM PST
Civil Twilight 7:20 AM PST 6:42 PM PST
Nautical Twilight 6:40 AM PST 7:22 PM PST
Astronomical Twilight 6:00 AM PST 8:02 PM PST
Moon 11:55 PM PST (2/19) 9:23 AM PST (2/19)
Length of Visible Light 11h 21m
Length of Day
10h 10m
Waning Gibbous, 79% of the Moon is Illuminated
Feb 19
Waning Gibbous
Feb 22
Last Quarter
Mar 1
New
Mar 8
First Quarter
Mar 16
Full

Hourly Weather History & Observations

Time (PST) Temp. Windchill Dew Point Humidity Pressure Visibility Wind Dir Wind Speed Gust Speed Precip Events Conditions
12:00 AM 37.4 °F 28.2 °F 33.8 °F 87% 29.32 in 9.0 mi WSW 16.1 mph - N/A   Mostly Cloudy
12:17 AM 37.4 °F 27.8 °F 33.8 °F 87% 29.34 in 9.0 mi WSW 17.3 mph - N/A Rain Light Rain
1:00 AM 36 °F - 33 °F 87% 29.37 in - West 1.2 mph - -  
1:00 AM 37.4 °F 32.1 °F 33.8 °F 87% 29.38 in 9.0 mi West 6.9 mph - N/A Rain Light Rain
1:04 AM 37.4 °F 29.8 °F 33.8 °F 87% 29.38 in 9.0 mi WNW 11.5 mph 18.4 mph N/A   Mostly Cloudy
1:51 AM 39.2 °F 28.7 °F 32.0 °F 75% 29.41 in 9.0 mi West 23.0 mph - N/A   Scattered Clouds
2:00 AM 37.4 °F 28.5 °F 32.0 °F 81% 29.42 in 9.0 mi SW 15.0 mph 26.5 mph N/A   Partly Cloudy
2:49 AM 37.4 °F 27.5 °F 32.0 °F 81% 29.47 in 9.0 mi WSW 18.4 mph - N/A Rain Light Rain
3:00 AM 37.4 °F 28.2 °F 33.8 °F 87% 29.49 in 9.0 mi WSW 16.1 mph 25.3 mph N/A Rain Light Rain
3:14 AM 37.4 °F 28.5 °F 33.8 °F 87% 29.50 in 9.0 mi West 15.0 mph - N/A Rain Light Rain
3:28 AM 37.4 °F 27.2 °F 32.0 °F 81% 29.50 in 9.0 mi West 19.6 mph 25.3 mph N/A Rain Light Rain
3:32 AM 37.4 °F 26.9 °F 32.0 °F 81% 29.50 in 9.0 mi West 20.7 mph - N/A   Mostly Cloudy
4:00 AM 38 °F - 33 °F 74% 29.50 in - WNW 6.9 mph - -  
4:00 AM 37.4 °F 26.1 °F 32.0 °F 81% 29.51 in 9.0 mi West 24.2 mph - N/A   Mostly Cloudy
4:23 AM 37.4 °F 26.1 °F 33.8 °F 87% 29.53 in 9.0 mi WSW 24.2 mph 29.9 mph N/A Rain Light Rain
5:00 AM 35.6 °F 26.6 °F 33.8 °F 93% 29.57 in 6.0 mi WSW 13.8 mph - N/A Rain Light Rain
5:13 AM 35.6 °F 27.1 °F 33.8 °F 93% 29.57 in 7.0 mi West 12.7 mph - N/A Rain Light Rain
5:23 AM 35.6 °F 27.1 °F 33.8 °F 93% 29.57 in 9.0 mi WSW 12.7 mph - N/A Rain Light Rain
5:30 AM 35.6 °F 28.0 °F 33.8 °F 93% 29.58 in 9.0 mi West 10.4 mph - N/A   Mostly Cloudy
5:39 AM 35.6 °F 29.2 °F 33.8 °F 93% 29.59 in 9.0 mi West 8.1 mph - N/A Rain Light Rain
5:49 AM 35.6 °F 24.2 °F 33.8 °F 93% 29.60 in 9.0 mi West 21.9 mph - N/A Rain Light Rain
5:52 AM 35.6 °F 24.8 °F 33.8 °F 93% 29.60 in 9.0 mi West 19.6 mph 25.3 mph N/A Rain Light Rain
6:00 AM 35.6 °F 25.5 °F 33.8 °F 93% 29.60 in 9.0 mi West 17.3 mph 24.2 mph N/A Rain Light Rain
6:01 AM 35.6 °F 24.8 °F 33.8 °F 93% 29.60 in 9.0 mi West 19.6 mph - N/A Rain Light Rain
6:04 AM 35.6 °F 25.5 °F 33.8 °F 93% 29.60 in 9.0 mi WSW 17.3 mph 23.0 mph N/A Rain Light Rain
6:44 AM 35.6 °F 25.2 °F 32.0 °F 87% 29.62 in 9.0 mi WSW 18.4 mph - N/A   Overcast
6:47 AM 35.6 °F 25.5 °F 32.0 °F 87% 29.62 in 9.0 mi WSW 17.3 mph - N/A Rain Light Rain
7:00 AM 36 °F - 33 °F 83% 29.62 in - West 3.5 mph - -  
7:00 AM 35.6 °F 25.9 °F 33.8 °F 93% 29.63 in 9.0 mi West 16.1 mph - N/A Rain Light Rain
7:25 AM 35.6 °F 26.6 °F 33.8 °F 93% 29.64 in 9.0 mi West 13.8 mph - N/A   Overcast
8:00 AM 35.6 °F 31.7 °F 32.0 °F 87% 29.66 in 9.0 mi SSW 4.6 mph - N/A   Mostly Cloudy
9:00 AM 35.6 °F 30.7 °F 28.4 °F 75% 29.68 in 9.0 mi SSW 5.8 mph - N/A   Overcast
10:00 AM 37 °F - 29 °F 62% 29.68 in - SW 3.5 mph - -  
10:00 AM 37.4 °F 30.8 °F 28.4 °F 70% 29.70 in 9.0 mi SW 9.2 mph - N/A   Overcast
10:21 AM 37.4 °F 26.9 °F 32.0 °F 81% 29.70 in 9.0 mi West 20.7 mph - N/A Rain Light Rain
10:48 AM 35.6 °F 31.7 °F 32.0 °F 87% 29.70 in 9.0 mi SSW 4.6 mph - N/A   Mostly Cloudy
11:00 AM 35.6 °F - 32.0 °F 87% 29.70 in 9.0 mi Variable 2.3 mph - N/A   Mostly Cloudy
12:00 PM 37.4 °F 31.4 °F 32.0 °F 81% 29.70 in 9.0 mi SSE 8.1 mph - N/A   Mostly Cloudy
1:00 PM 38 °F - 31 °F 69% 29.69 in - SSE 3.5 mph - -  
1:00 PM 39.2 °F 35.9 °F 32.0 °F 75% 29.70 in 9.0 mi SSE 4.6 mph - N/A   Overcast
2:00 PM 39.2 °F 32.0 °F 32.0 °F 75% 29.70 in 9.0 mi SSE 11.5 mph - N/A   Mostly Cloudy
3:00 PM 39.2 °F 34.2 °F 30.2 °F 70% 29.68 in 9.0 mi SSE 6.9 mph - N/A   Overcast
3:25 PM 39.2 °F 32.0 °F 32.0 °F 75% 29.69 in 9.0 mi SSE 11.5 mph 19.6 mph N/A Rain Light Rain
4:00 PM 36 °F - 33 °F 84% 29.68 in - South 4.6 mph - -  
4:00 PM 37.4 °F 32.1 °F 33.8 °F 87% 29.69 in 8.0 mi South 6.9 mph - N/A Rain Light Rain
4:01 PM 35.6 °F 30.7 °F 33.8 °F 93% 29.69 in 8.0 mi South 5.8 mph - N/A Rain Light Rain
5:00 PM 35.6 °F 28.6 °F 33.8 °F 93% 29.69 in 9.0 mi SSE 9.2 mph - N/A Rain Light Rain
5:29 PM 35.6 °F 29.2 °F 33.8 °F 93% 29.70 in 8.0 mi SE 8.1 mph - N/A Rain Rain
5:35 PM 35.6 °F 29.9 °F 33.8 °F 93% 29.70 in 8.0 mi ESE 6.9 mph - N/A   Overcast
6:00 PM 33.8 °F 28.6 °F 33.8 °F 100% 29.70 in 6.0 mi SE 5.8 mph - N/A   Overcast
6:04 PM 33.8 °F 29.6 °F 32.0 °F 93% 29.70 in 5.0 mi SE 4.6 mph - N/A   Overcast
6:10 PM 33.8 °F 29.6 °F 32.0 °F 93% 29.70 in 5.0 mi ESE 4.6 mph - N/A Snow Light Snow
6:23 PM 33.8 °F 30.8 °F 32.0 °F 93% 29.70 in 5.0 mi SE 3.5 mph - N/A Snow Light Snow
6:27 PM 33.8 °F - 32.0 °F 93% 29.70 in 4.0 mi Variable 2.3 mph - N/A Snow Light Snow
6:52 PM 32.0 °F - 32.0 °F 100% 29.70 in 4.0 mi West 2.3 mph - N/A Snow Light Snow
7:00 PM 33 °F - 31 °F 92% 29.69 in - WNW 1.2 mph - -  
7:00 PM 32.0 °F 28.7 °F 32.0 °F 100% 29.70 in 5.0 mi West 3.5 mph - N/A Snow Light Snow
7:03 PM 32.0 °F 28.7 °F 32.0 °F 100% 29.70 in 6.0 mi West 3.5 mph - N/A Snow Light Snow
7:05 PM 32.0 °F 28.7 °F 32.0 °F 100% 29.70 in 5.0 mi WNW 3.5 mph - N/A Snow Light Snow
7:21 PM 32.0 °F 28.7 °F 32.0 °F 100% 29.70 in 4.0 mi West 3.5 mph - N/A Snow Light Snow
7:30 PM 32.0 °F 28.7 °F 32.0 °F 100% 29.70 in 6.0 mi West 3.5 mph - N/A Snow Light Snow
7:44 PM 33.8 °F 29.6 °F 32.0 °F 93% 29.70 in 9.0 mi West 4.6 mph - N/A Snow Light Snow
7:50 PM 33.8 °F 28.6 °F 32.0 °F 93% 29.70 in 9.0 mi West 5.8 mph - N/A   Overcast
7:52 PM 33.8 °F 28.6 °F 32.0 °F 93% 29.70 in 9.0 mi WNW 5.8 mph - N/A Rain Light Rain
7:58 PM 33.8 °F 27.7 °F 32.0 °F 93% 29.70 in 9.0 mi WNW 6.9 mph - N/A Rain Light Rain
8:00 PM 33.8 °F 27.7 °F 32.0 °F 93% 29.70 in 9.0 mi WNW 6.9 mph - N/A Rain Light Rain
8:07 PM 33.8 °F 27.7 °F 32.0 °F 93% 29.70 in 9.0 mi NW 6.9 mph - N/A Rain Light Rain
8:48 PM 33.8 °F 24.3 °F 33.8 °F 100% 29.70 in 8.0 mi NW 13.8 mph - N/A Rain Light Rain
8:53 PM 33.8 °F 24.3 °F 33.8 °F 100% 29.71 in 7.0 mi NW 13.8 mph - N/A Rain Light Rain
8:55 PM 33.8 °F 23.9 °F 33.8 °F 100% 29.71 in 8.0 mi NW 15.0 mph - N/A Rain Light Rain
9:00 PM 35.6 °F 25.9 °F 33.8 °F 93% 29.72 in 9.0 mi NW 16.1 mph - N/A Rain Light Rain
9:15 PM 35.6 °F 25.2 °F 33.8 °F 93% 29.73 in 9.0 mi NW 18.4 mph - N/A   Overcast
9:17 PM 35.6 °F 25.5 °F 33.8 °F 93% 29.73 in 9.0 mi NW 17.3 mph - N/A Rain Light Rain
9:46 PM 35.6 °F 26.2 °F 33.8 °F 93% 29.73 in 9.0 mi NNW 15.0 mph 21.9 mph N/A   Overcast
9:56 PM 35.6 °F 25.9 °F 33.8 °F 93% 29.73 in 9.0 mi NNW 16.1 mph - N/A   Overcast
10:00 PM 35 °F - 33 °F 90% 29.72 in - NW 6.9 mph - -  
10:00 PM 35.6 °F 25.9 °F 33.8 °F 93% 29.73 in 9.0 mi NNW 16.1 mph - N/A   Overcast
10:49 PM 35.6 °F 29.2 °F 32.0 °F 87% 29.73 in 9.0 mi West 8.1 mph - N/A   Mostly Cloudy
11:00 PM 33.8 °F 27.0 °F 32.0 °F 93% 29.73 in 9.0 mi West 8.1 mph - N/A   Mostly Cloudy
11:04 PM 33.8 °F 26.4 °F 32.0 °F 93% 29.74 in 9.0 mi West 9.2 mph - N/A   Scattered Clouds